Starlink 30939

operational
NORAD ID: 58393 Int'l Des: 2023-178 Owner: SPXS Country: US Constellation: starlink
LEOCIRCULAR

About Starlink 30939

Description loading...

Live Position

Loading 3D Globe...

Upcoming Passes

Altitude History

Altitude vs Time

uPlot chart will show altitude changes over time

Two-Line Element Set

1 58393U 23178V 25303.86322442 .00001113 00000-0 49692-4 0 9993
2 58393 53.1588 244.1567 0000590 90.0763 270.0305 15.30202939109885
Epoch: Oct 30, 2025 • Age: 5 hours

Current Status

Altitude 475.3 km
Velocity 7.63 km/s
Sub-Earth Point 9.83°N, 171.06°W
Launch Date Nov 20, 2023
Age 1.9 years
Type internet

Technical Details

Classification Payload
Mass 730.00 kg
Dry Mass 700.00 kg
Total Mass 730.00 kg
Length 0.30 m
Diameter 4.10 m
Span 29.00 m
Shape Box + pan
Manufacturer SPXS
Bus Type Starlink V2M
Phase Status In Orbit
Owner/State SPXS/US

Large Constellations

Loading constellations...